EW9559 Weather Reports


Display with metric or nautical units.
time (UTC)temp
F
wind
direction
speed
MPH
gust
MPH
rain 1hr
in
rain 24hr
in
rain mn
in
humidity
%
barometer
mb
20260901171532 61 252 2.0 9.0 0.00 0.00 0.00 74 1014.8
20260901170031 60 256 1.0 7.0 0.00 0.00 0.00 76 1014.8
20260901164527 60 248 2.0 7.0 0.00 0.00 0.00 77 1014.9
20260901163025 59 252 2.0 9.0 0.00 0.00 0.00 78 1014.8
20260901154614 58 246 1.0 7.0 0.00 0.00 0.00 80 1014.5
20260901153032 58 245 2.0 10.0 0.00 0.00 0.00 81 1014.5
20260901151532 57 247 1.0 5.0 0.00 0.00 0.00 82 1014.5
20260901144531 57 244 1.0 6.0 0.00 0.00 0.00 83 1014.4
20260901143147 57 232 1.0 7.0 0.00 0.00 0.00 83 1014.3
20260901141531 57 244 1.0 8.0 0.00 0.00 0.00 82 1014.2
20260901140028 57 243 1.0 6.0 0.00 0.00 0.00 82 1014.0
20260901134530 58 242 1.0 7.0 0.00 0.00 0.00 81 1013.9
20260901133030 58 239 1.0 6.0 0.00 0.00 0.00 81 1013.7
20260901131527 58 237 1.0 8.0 0.00 0.00 0.00 81 1013.6
20260901130106 58 233 1.0 7.0 0.00 0.00 0.00 81 1013.4
20260901124530 58 237 0.0 4.0 0.00 0.00 0.00 80 1013.3
20260901121533 59 247 0.0 6.0 0.00 0.00 0.00 77 1013.3
20260901120029 59 235 1.0 7.0 0.00 0.00 0.00 77 1013.3
20260901114532 60 233 1.0 7.0 0.00 0.00 0.00 75 1013.2
20260901111528 60 232 1.0 8.0 0.00 0.00 0.00 74 1013.2
20260901104531 61 251 1.0 4.0 0.00 0.00 0.00 72 1013.2
20260901103030 62 254 1.0 6.0 0.00 0.00 0.00 71 1013.1
20260901101530 62 247 1.0 5.0 0.00 0.00 0.00 70 1013.1
20260901100030 63 260 0.0 7.0 0.00 0.00 0.00 70 1013.0
20260901094529 63 267 0.0 4.0 0.00 0.00 0.00 69 1013.0
20260901091527 64 246 0.0 4.0 0.00 0.00 0.00 67 1012.7
20260901090030 64 256 1.0 5.0 0.00 0.00 0.00 65 1012.6
20260901084531 64 263 0.0 4.0 0.00 0.00 0.00 64 1012.8
20260901083030 62 257 0.0 4.0 0.00 0.00 0.00 66 1012.9
20260901080028 58 260 0.0 1.0 0.00 0.00 0.00 69 1012.8
20260901074530 58 270 0.0 1.0 0.00 0.00 0.00 69 1012.6
20260901071529 59 270 0.0 2.0 0.00 0.00 0.00 66 1012.5
20260901070032 60 270 0.0 1.0 0.00 0.00 0.00 64 1012.5
20260901064531 61 270 0.0 2.0 0.00 0.00 0.00 60 1012.5
20260901063029 61 270 0.0 2.0 0.00 0.00 0.00 59 1012.6
20260901060031 62 247 1.0 2.0 0.00 0.00 0.00 58 1012.7
20260901054530 62 247 0.0 2.0 0.00 0.00 0.00 59 1012.7
20260901051531 63 247 0.0 2.0 0.00 0.00 0.00 58 1012.6
20260901050146 63 247 0.0 2.0 0.00 0.00 0.00 58 1012.7
20260901044530 63 247 0.0 2.0 0.00 0.00 0.00 57 1012.6
20260901043031 64 227 0.0 2.0 0.00 0.00 0.00 54 1012.4
20260901041531 65 242 0.0 3.0 0.00 0.00 0.00 52 1012.3
20260901040030 66 247 0.0 2.0 0.00 0.00 0.00 51 1012.1
20260901033107 67 247 0.0 2.0 0.00 0.00 0.00 46 1011.7
20260901031532 67 247 1.0 3.0 0.00 0.00 0.00 47 1011.7
20260901024525 69 255 1.0 3.0 0.00 0.00 0.00 45 1011.3
20260901023030 69 254 1.0 3.0 0.00 0.00 0.00 45 1011.2
20260901021530 70 268 1.0 3.0 0.00 0.00 0.00 45 1011.2
20260901013031 73 270 0.0 0.0 0.00 0.00 0.00 46 1011.3
20260901011528 75 270 0.0 0.0 0.00 0.00 0.00 45 1011.4
20260901010030 76 270 0.0 0.0 0.00 0.00 0.00 45 1011.5
20260901004529 78 270 0.0 0.0 0.00 0.00 0.00 46 1011.6
20260901003033 82 270 0.0 0.0 0.00 0.00 0.00 38 1011.8
20260901000031 89 270 0.0 0.0 0.00 0.00 0.00 34 1012.0
20260831234529 88 270 0.0 0.0 0.00 0.00 0.00 32 1012.2
20260831233110 89 283 0.0 0.0 0.00 0.00 0.00 31 1012.4
20260831231529 91 234 0.0 2.0 0.00 0.00 0.00 29 1012.6
20260831230106 90 202 0.0 1.0 0.00 0.00 0.00 30 1012.8
20260831223029 86 198 0.0 1.0 0.00 0.00 0.00 30 1013.2
20260831221531 86 202 0.0 4.0 0.00 0.00 0.00 32 1013.4
20260831220031 84 179 0.0 2.0 0.00 0.00 0.00 34 1013.5
20260831214530 83 191 0.0 4.0 0.00 0.00 0.00 34 1013.9
20260831213030 82 164 0.0 4.0 0.00 0.00 0.00 35 1014.1
20260831211532 81 162 0.0 5.0 0.00 0.00 0.00 35 1014.3
20260831210029 81 147 0.0 4.0 0.00 0.00 0.00 35 1014.5
20260831204606 81 135 0.0 4.0 0.00 0.00 0.00 36 1014.6
20260831203031 80 147 0.0 7.0 0.00 0.00 0.00 38 1014.9
20260831200031 80 6 0.0 5.0 0.00 0.00 0.00 39 1015.6
20260831193029 76 38 1.0 5.0 0.00 0.00 0.00 42 1016.0
20260831191532 76 357 0.0 4.0 0.00 0.00 0.00 44 1016.4
20260831190029 75 338 0.0 6.0 0.00 0.00 0.00 46 1016.7
20260831184527 74 337 0.0 4.0 0.00 0.00 0.00 47 1016.9
20260831181532 72 319 0.0 4.0 0.00 0.00 0.00 54 1017.4
20260831173032 69 339 0.0 4.0 0.00 0.00 0.00 59 1017.7